Year,Month,Day,Hour,Minute,Value (Times are PST for temperature in C)
2018,11,13,00,00,7.80
2018,11,13,00,01,7.80
2018,11,13,00,02,7.80
2018,11,13,00,03,7.80
2018,11,13,00,04,7.80
2018,11,13,00,05,7.90
2018,11,13,00,06,7.90
2018,11,13,00,07,7.90
2018,11,13,00,08,7.80
2018,11,13,00,09,7.80
2018,11,13,00,10,7.80
2018,11,13,00,11,7.80
2018,11,13,00,12,7.80
2018,11,13,00,13,7.80
2018,11,13,00,14,7.80
2018,11,13,00,15,7.80
2018,11,13,00,16,7.80
2018,11,13,00,17,7.80
2018,11,13,00,18,7.80
2018,11,13,00,19,7.80
2018,11,13,00,20,7.80
2018,11,13,00,21,7.80
2018,11,13,00,22,7.80
2018,11,13,00,23,7.80
2018,11,13,00,24,7.80
2018,11,13,00,25,7.80
2018,11,13,00,26,7.80
2018,11,13,00,27,7.80
2018,11,13,00,28,7.80
2018,11,13,00,29,7.80
2018,11,13,00,30,7.80
2018,11,13,00,31,7.80
2018,11,13,00,32,7.80
2018,11,13,00,33,7.80
2018,11,13,00,34,7.80
2018,11,13,00,35,7.80
2018,11,13,00,36,7.80
2018,11,13,00,37,7.80
2018,11,13,00,38,7.80
2018,11,13,00,39,7.80
2018,11,13,00,40,7.80
2018,11,13,00,41,7.80
2018,11,13,00,42,7.80
2018,11,13,00,43,7.80
2018,11,13,00,44,7.80
2018,11,13,00,45,7.80
2018,11,13,00,46,7.80
2018,11,13,00,47,7.80
2018,11,13,00,48,7.80
2018,11,13,00,49,7.70
2018,11,13,00,50,7.70
2018,11,13,00,51,7.70
2018,11,13,00,52,7.70
2018,11,13,00,53,7.70
2018,11,13,00,54,7.70
2018,11,13,00,55,7.70
2018,11,13,00,56,7.70
2018,11,13,00,57,7.70
2018,11,13,00,58,7.70
2018,11,13,00,59,7.70
2018,11,13,01,00,7.60
2018,11,13,01,01,7.60
2018,11,13,01,02,7.60
2018,11,13,01,03,7.60
2018,11,13,01,04,7.60
2018,11,13,01,05,7.60
2018,11,13,01,06,7.60
2018,11,13,01,07,7.60
2018,11,13,01,08,7.60
2018,11,13,01,09,7.60
2018,11,13,01,10,7.60
2018,11,13,01,11,7.60
2018,11,13,01,12,7.60
2018,11,13,01,13,7.60
2018,11,13,01,14,7.60
2018,11,13,01,15,7.60
2018,11,13,01,16,7.60
2018,11,13,01,17,7.60
2018,11,13,01,18,7.60
2018,11,13,01,19,7.60
2018,11,13,01,20,7.60
2018,11,13,01,21,7.60
2018,11,13,01,22,7.60
2018,11,13,01,23,7.60
2018,11,13,01,24,7.60
2018,11,13,01,25,7.60
2018,11,13,01,26,7.60
2018,11,13,01,27,7.60
2018,11,13,01,28,7.60
2018,11,13,01,29,7.60
2018,11,13,01,30,7.60
2018,11,13,01,31,7.60
2018,11,13,01,32,7.60
2018,11,13,01,33,7.60
2018,11,13,01,34,7.60
2018,11,13,01,35,7.60
2018,11,13,01,36,7.60
2018,11,13,01,37,7.60
2018,11,13,01,38,7.60
2018,11,13,01,39,7.60
2018,11,13,01,40,7.60
2018,11,13,01,41,7.60
2018,11,13,01,42,7.60
2018,11,13,01,43,7.60
2018,11,13,01,44,7.60
2018,11,13,01,45,7.60
2018,11,13,01,46,7.60
2018,11,13,01,47,7.60
2018,11,13,01,48,7.60
2018,11,13,01,49,7.60
2018,11,13,01,50,7.60
2018,11,13,01,51,7.60
2018,11,13,01,52,7.60
2018,11,13,01,53,7.60
2018,11,13,01,54,7.60
2018,11,13,01,55,7.60
2018,11,13,01,56,7.60
2018,11,13,01,57,7.60
2018,11,13,01,58,7.60
2018,11,13,01,59,7.60
2018,11,13,02,00,7.60
2018,11,13,02,01,7.60
2018,11,13,02,02,7.60
2018,11,13,02,03,7.60
2018,11,13,02,04,7.60
2018,11,13,02,05,7.60
2018,11,13,02,06,7.60
2018,11,13,02,07,7.60
2018,11,13,02,08,7.60
2018,11,13,02,09,7.60
2018,11,13,02,10,7.60
2018,11,13,02,11,7.60
2018,11,13,02,12,7.70
2018,11,13,02,13,7.70
2018,11,13,02,14,7.70
2018,11,13,02,15,7.70
2018,11,13,02,16,7.70
2018,11,13,02,17,7.70
2018,11,13,02,18,7.70
2018,11,13,02,19,7.70
2018,11,13,02,20,7.70
2018,11,13,02,21,7.70
2018,11,13,02,22,7.70
2018,11,13,02,23,7.70
2018,11,13,02,24,7.70
2018,11,13,02,25,7.70
2018,11,13,02,26,7.70
2018,11,13,02,27,7.70
2018,11,13,02,28,7.70
2018,11,13,02,29,7.70
2018,11,13,02,30,7.70
2018,11,13,02,31,7.70
2018,11,13,02,32,7.70
2018,11,13,02,33,7.70
2018,11,13,02,34,7.70
2018,11,13,02,35,7.70
2018,11,13,02,36,7.70
2018,11,13,02,37,7.60
2018,11,13,02,38,7.60
2018,11,13,02,39,7.60
2018,11,13,02,40,7.60
2018,11,13,02,41,7.70
2018,11,13,02,42,7.70
2018,11,13,02,43,7.70
2018,11,13,02,44,7.70
2018,11,13,02,45,7.70
2018,11,13,02,46,7.70
2018,11,13,02,47,7.70
2018,11,13,02,48,7.70
2018,11,13,02,49,7.70
2018,11,13,02,50,7.70
2018,11,13,02,51,7.70
2018,11,13,02,52,7.70
2018,11,13,02,53,7.70
2018,11,13,02,54,7.70
2018,11,13,02,55,7.70
2018,11,13,02,56,7.70
2018,11,13,02,57,7.80
2018,11,13,02,58,7.80
2018,11,13,02,59,7.80
2018,11,13,03,00,7.80
2018,11,13,03,01,7.80
2018,11,13,03,02,7.80
2018,11,13,03,03,7.80
2018,11,13,03,04,7.80
2018,11,13,03,05,7.80
2018,11,13,03,06,7.90
2018,11,13,03,07,7.80
2018,11,13,03,08,7.80
2018,11,13,03,09,7.90
2018,11,13,03,10,7.80
2018,11,13,03,11,7.80
2018,11,13,03,12,7.80
2018,11,13,03,13,7.80
2018,11,13,03,14,7.80
2018,11,13,03,15,7.80
2018,11,13,03,16,7.80
2018,11,13,03,17,7.80
2018,11,13,03,18,7.80
2018,11,13,03,19,7.80
2018,11,13,03,20,7.80
2018,11,13,03,21,7.80
2018,11,13,03,22,7.80
2018,11,13,03,23,7.80
2018,11,13,03,24,7.80
2018,11,13,03,25,7.80
2018,11,13,03,26,7.80
2018,11,13,03,27,7.80
2018,11,13,03,28,7.80
2018,11,13,03,29,7.80
2018,11,13,03,30,7.80
2018,11,13,03,31,7.80
2018,11,13,03,32,7.80
2018,11,13,03,33,7.80
2018,11,13,03,34,7.80
2018,11,13,03,35,7.70
2018,11,13,03,36,7.70
2018,11,13,03,37,7.70
2018,11,13,03,38,7.70
2018,11,13,03,39,7.70
2018,11,13,03,40,7.70
2018,11,13,03,41,7.70
2018,11,13,03,42,7.70
2018,11,13,03,43,7.70
2018,11,13,03,44,7.70
2018,11,13,03,45,7.70
2018,11,13,03,46,7.70
2018,11,13,03,47,7.70
2018,11,13,03,48,7.70
2018,11,13,03,49,7.70
2018,11,13,03,50,7.70
2018,11,13,03,51,7.70
2018,11,13,03,52,7.60
2018,11,13,03,53,7.60
2018,11,13,03,54,7.60
2018,11,13,03,55,7.60
2018,11,13,03,56,7.60
2018,11,13,03,57,7.60
2018,11,13,03,58,7.60
2018,11,13,03,59,7.60
2018,11,13,04,00,7.50
2018,11,13,04,01,7.50
2018,11,13,04,02,7.50
2018,11,13,04,03,7.50
2018,11,13,04,04,7.40
2018,11,13,04,05,7.40
2018,11,13,04,06,7.40
2018,11,13,04,07,7.40
2018,11,13,04,08,7.40
2018,11,13,04,09,7.40
2018,11,13,04,10,7.30
2018,11,13,04,11,7.30
2018,11,13,04,12,7.30
2018,11,13,04,13,7.30
2018,11,13,04,14,7.30
2018,11,13,04,15,7.20
2018,11,13,04,16,7.20
2018,11,13,04,17,7.10
2018,11,13,04,18,7.00
2018,11,13,04,19,6.90
2018,11,13,04,20,6.80
2018,11,13,04,21,6.70
2018,11,13,04,22,6.70
2018,11,13,04,23,6.70
2018,11,13,04,24,6.60
2018,11,13,04,25,6.60
2018,11,13,04,26,6.60
2018,11,13,04,27,6.50
2018,11,13,04,28,6.50
2018,11,13,04,29,6.50
2018,11,13,04,30,6.50
2018,11,13,04,31,6.60
2018,11,13,04,32,6.60
2018,11,13,04,33,6.60
2018,11,13,04,34,6.70
2018,11,13,04,35,6.70
2018,11,13,04,36,6.70
2018,11,13,04,37,6.70
2018,11,13,04,38,6.70
2018,11,13,04,39,6.70
2018,11,13,04,40,6.70
2018,11,13,04,41,6.70
2018,11,13,04,42,6.80
2018,11,13,04,43,6.80
2018,11,13,04,44,6.80
2018,11,13,04,45,6.80
2018,11,13,04,46,6.90
2018,11,13,04,47,6.90
2018,11,13,04,48,6.90
2018,11,13,04,49,6.90
2018,11,13,04,50,6.90
2018,11,13,04,51,7.00
2018,11,13,04,52,7.00
2018,11,13,04,53,7.00
2018,11,13,04,54,7.00
2018,11,13,04,55,7.00
2018,11,13,04,56,7.10
2018,11,13,04,57,7.10
2018,11,13,04,58,7.10
2018,11,13,04,59,7.10
2018,11,13,05,00,7.10
2018,11,13,05,01,7.10
2018,11,13,05,02,7.10
2018,11,13,05,03,7.10
2018,11,13,05,04,7.10
2018,11,13,05,05,7.10
2018,11,13,05,06,7.10
2018,11,13,05,07,7.10
2018,11,13,05,08,7.20
2018,11,13,05,09,7.20
2018,11,13,05,10,7.20
2018,11,13,05,11,7.20
2018,11,13,05,12,7.20
2018,11,13,05,13,7.20
2018,11,13,05,14,7.20
2018,11,13,05,15,7.20
2018,11,13,05,16,7.20
2018,11,13,05,17,7.20
2018,11,13,05,18,7.30
2018,11,13,05,19,7.30
2018,11,13,05,20,7.30
2018,11,13,05,21,7.30
2018,11,13,05,22,7.40
2018,11,13,05,23,7.40
2018,11,13,05,24,7.40
2018,11,13,05,25,7.40
2018,11,13,05,26,7.40
2018,11,13,05,27,7.40
2018,11,13,05,28,7.40
2018,11,13,05,29,7.40
2018,11,13,05,30,7.40
2018,11,13,05,31,7.50
2018,11,13,05,32,7.50
2018,11,13,05,33,7.50
2018,11,13,05,34,7.50
2018,11,13,05,35,7.50
2018,11,13,05,36,7.40
2018,11,13,05,37,7.50
2018,11,13,05,38,7.50
2018,11,13,05,39,7.50
2018,11,13,05,40,7.40
2018,11,13,05,41,7.40
2018,11,13,05,42,7.40
2018,11,13,05,43,7.40
2018,11,13,05,44,7.40
2018,11,13,05,45,7.40
2018,11,13,05,46,7.40
2018,11,13,05,47,7.40
2018,11,13,05,48,7.40
2018,11,13,05,49,7.50
2018,11,13,05,50,7.40
2018,11,13,05,51,7.40
2018,11,13,05,52,7.40
2018,11,13,05,53,7.40
2018,11,13,05,54,7.40
2018,11,13,05,55,7.40
2018,11,13,05,56,7.40
2018,11,13,05,57,7.40
2018,11,13,05,58,7.40
2018,11,13,05,59,7.40
2018,11,13,06,00,7.40
2018,11,13,06,01,7.40
2018,11,13,06,02,7.50
2018,11,13,06,03,7.50
2018,11,13,06,04,7.50
2018,11,13,06,05,7.50
2018,11,13,06,06,7.50
2018,11,13,06,07,7.50
2018,11,13,06,08,7.50
2018,11,13,06,09,7.60
2018,11,13,06,10,7.60
2018,11,13,06,11,7.60
2018,11,13,06,12,7.60
2018,11,13,06,13,7.60
2018,11,13,06,14,7.50
2018,11,13,06,15,7.50
2018,11,13,06,16,7.50
2018,11,13,06,17,7.50
2018,11,13,06,18,7.50
2018,11,13,06,19,7.40
2018,11,13,06,20,7.40
2018,11,13,06,21,7.40
2018,11,13,06,22,7.40
2018,11,13,06,23,7.50
2018,11,13,06,24,7.50
2018,11,13,06,25,7.50
2018,11,13,06,26,7.50
2018,11,13,06,27,7.50
2018,11,13,06,28,7.50
2018,11,13,06,29,7.50
2018,11,13,06,30,7.60
2018,11,13,06,31,7.50
2018,11,13,06,32,7.50
2018,11,13,06,33,7.50
2018,11,13,06,34,7.50
2018,11,13,06,35,7.50
2018,11,13,06,36,7.40
2018,11,13,06,37,7.40
2018,11,13,06,38,7.40
2018,11,13,06,39,7.40
2018,11,13,06,40,7.40
2018,11,13,06,41,7.40
2018,11,13,06,42,7.40
2018,11,13,06,43,7.40
2018,11,13,06,44,7.40
2018,11,13,06,45,7.40
2018,11,13,06,46,7.30
2018,11,13,06,47,7.30
2018,11,13,06,48,7.30
2018,11,13,06,49,7.30
2018,11,13,06,50,7.30
2018,11,13,06,51,7.30
2018,11,13,06,52,7.30
2018,11,13,06,53,7.30
2018,11,13,06,54,7.30
2018,11,13,06,55,7.30
2018,11,13,06,56,7.30
2018,11,13,06,57,7.30
2018,11,13,06,58,7.30
2018,11,13,06,59,7.30
2018,11,13,07,00,7.30
2018,11,13,07,01,7.30
2018,11,13,07,02,7.30
2018,11,13,07,03,7.30
2018,11,13,07,04,7.30
2018,11,13,07,05,7.30
2018,11,13,07,06,7.30
2018,11,13,07,07,7.30
2018,11,13,07,08,7.30
2018,11,13,07,09,7.30
2018,11,13,07,10,7.30
2018,11,13,07,11,7.30
2018,11,13,07,12,7.30
2018,11,13,07,13,7.30
2018,11,13,07,14,7.30
2018,11,13,07,15,7.20
2018,11,13,07,16,7.10
2018,11,13,07,17,7.00
2018,11,13,07,18,7.00
2018,11,13,07,19,6.90
2018,11,13,07,20,6.80
2018,11,13,07,21,6.80
2018,11,13,07,22,6.80
2018,11,13,07,23,6.70
2018,11,13,07,24,6.70
2018,11,13,07,25,6.60
2018,11,13,07,26,6.60
2018,11,13,07,27,6.50
2018,11,13,07,28,6.50
2018,11,13,07,29,6.50
2018,11,13,07,30,6.40
2018,11,13,07,31,6.40
2018,11,13,07,32,6.40
2018,11,13,07,33,6.40
2018,11,13,07,34,6.30
2018,11,13,07,35,6.30
2018,11,13,07,36,6.30
2018,11,13,07,37,6.30
2018,11,13,07,38,6.40
2018,11,13,07,39,6.40
2018,11,13,07,40,6.40
2018,11,13,07,41,6.40
2018,11,13,07,42,6.30
2018,11,13,07,43,6.30
2018,11,13,07,44,6.30
2018,11,13,07,45,6.30
2018,11,13,07,46,6.30
2018,11,13,07,47,6.30
2018,11,13,07,48,6.30
2018,11,13,07,49,6.20
2018,11,13,07,50,6.20
2018,11,13,07,51,6.20
2018,11,13,07,52,6.10
2018,11,13,07,53,6.10
2018,11,13,07,54,6.10
2018,11,13,07,55,6.10
2018,11,13,07,56,6.10
2018,11,13,07,57,6.10
2018,11,13,07,58,6.10
2018,11,13,07,59,6.00
2018,11,13,08,00,6.00
2018,11,13,08,01,6.00
2018,11,13,08,02,6.00
2018,11,13,08,03,6.00
2018,11,13,08,04,6.00
2018,11,13,08,05,6.00
2018,11,13,08,06,6.00
2018,11,13,08,07,6.00
2018,11,13,08,08,6.10
2018,11,13,08,09,6.10
2018,11,13,08,10,6.10
2018,11,13,08,11,6.10
2018,11,13,08,12,6.20
2018,11,13,08,13,6.20
2018,11,13,08,14,6.20
2018,11,13,08,15,6.20
2018,11,13,08,16,6.30
2018,11,13,08,17,6.30
2018,11,13,08,18,6.30
2018,11,13,08,19,6.40
2018,11,13,08,20,6.50
2018,11,13,08,21,6.50
2018,11,13,08,22,6.60
2018,11,13,08,23,6.60
2018,11,13,08,24,6.70
2018,11,13,08,25,6.80
2018,11,13,08,26,6.80
2018,11,13,08,27,6.90
2018,11,13,08,28,7.00
2018,11,13,08,29,7.10
2018,11,13,08,30,7.20
2018,11,13,08,31,7.30
2018,11,13,08,32,7.40
2018,11,13,08,33,7.40
2018,11,13,08,34,7.50
2018,11,13,08,35,7.60
2018,11,13,08,36,7.60
2018,11,13,08,37,7.70
2018,11,13,08,38,7.80
2018,11,13,08,39,7.80
2018,11,13,08,40,7.80
2018,11,13,08,41,7.80
2018,11,13,08,42,7.70
2018,11,13,08,43,7.80
2018,11,13,08,44,7.80
2018,11,13,08,45,7.80
2018,11,13,08,46,7.80
2018,11,13,08,47,7.80
2018,11,13,08,48,7.80
2018,11,13,08,49,7.80
2018,11,13,08,50,7.80
2018,11,13,08,51,7.80
2018,11,13,08,52,7.90
2018,11,13,08,53,7.90
2018,11,13,08,54,8.00
2018,11,13,08,55,8.00
2018,11,13,08,56,8.10
2018,11,13,08,57,8.20
2018,11,13,08,58,8.20
2018,11,13,08,59,8.30
2018,11,13,09,00,8.40
2018,11,13,09,01,8.40
2018,11,13,09,02,8.50
2018,11,13,09,03,8.50
2018,11,13,09,04,8.50
2018,11,13,09,05,8.60
2018,11,13,09,06,8.60
2018,11,13,09,07,8.60
2018,11,13,09,08,8.70
2018,11,13,09,09,8.70
2018,11,13,09,10,8.70
2018,11,13,09,11,8.70
2018,11,13,09,12,8.70
2018,11,13,09,13,8.70
2018,11,13,09,14,8.80
2018,11,13,09,15,8.80
2018,11,13,09,16,8.80
2018,11,13,09,17,8.80
2018,11,13,09,18,8.80
2018,11,13,09,19,8.80
2018,11,13,09,20,8.80
2018,11,13,09,21,8.80
2018,11,13,09,22,8.80
2018,11,13,09,23,8.80
2018,11,13,09,24,8.80
2018,11,13,09,25,8.80
2018,11,13,09,26,8.80
2018,11,13,09,27,8.80
2018,11,13,09,28,8.80
2018,11,13,09,29,8.80
2018,11,13,09,30,8.80
2018,11,13,09,31,8.80
2018,11,13,09,32,8.80
2018,11,13,09,33,8.80
2018,11,13,09,34,8.80
2018,11,13,09,35,8.80
2018,11,13,09,36,8.80
2018,11,13,09,37,8.70
2018,11,13,09,38,8.70
2018,11,13,09,39,8.70
2018,11,13,09,40,8.70
2018,11,13,09,41,8.70
2018,11,13,09,42,8.70
2018,11,13,09,43,8.70
2018,11,13,09,44,8.70
2018,11,13,09,45,8.70
2018,11,13,09,46,8.70
2018,11,13,09,47,8.70
2018,11,13,09,48,8.70
2018,11,13,09,49,8.60
2018,11,13,09,50,8.60
2018,11,13,09,51,8.60
2018,11,13,09,52,8.60
2018,11,13,09,53,8.60
2018,11,13,09,54,8.60
2018,11,13,09,55,8.60
2018,11,13,09,56,8.60
2018,11,13,09,57,8.60
2018,11,13,09,58,8.60
2018,11,13,09,59,8.60
2018,11,13,10,00,8.60
2018,11,13,10,01,8.60
2018,11,13,10,02,8.60
2018,11,13,10,03,8.60
2018,11,13,10,04,8.60
2018,11,13,10,05,8.60
2018,11,13,10,06,8.60
2018,11,13,10,07,8.60
2018,11,13,10,08,8.60
2018,11,13,10,09,8.60
2018,11,13,10,10,8.60
2018,11,13,10,11,8.70
2018,11,13,10,12,8.70
2018,11,13,10,13,8.70
2018,11,13,10,14,8.70
2018,11,13,10,15,8.70
2018,11,13,10,16,8.70
2018,11,13,10,17,8.70
2018,11,13,10,18,8.70
2018,11,13,10,19,8.70
2018,11,13,10,20,8.70
2018,11,13,10,21,8.70
2018,11,13,10,22,8.70
2018,11,13,10,23,8.70
2018,11,13,10,24,8.70
2018,11,13,10,25,8.70
2018,11,13,10,26,8.70
2018,11,13,10,27,8.70
2018,11,13,10,28,8.70
2018,11,13,10,29,8.70
2018,11,13,10,30,8.70
2018,11,13,10,31,8.70
2018,11,13,10,32,8.70
2018,11,13,10,33,8.70
2018,11,13,10,34,8.70
2018,11,13,10,35,8.70
2018,11,13,10,36,8.70
2018,11,13,10,37,8.70
2018,11,13,10,38,8.70
2018,11,13,10,39,8.70
2018,11,13,10,40,8.70
2018,11,13,10,41,8.70
2018,11,13,10,42,8.70
2018,11,13,10,43,8.70
2018,11,13,10,44,8.70
2018,11,13,10,45,8.70
2018,11,13,10,46,8.70
2018,11,13,10,47,8.70
2018,11,13,10,48,8.70
2018,11,13,10,49,8.70
2018,11,13,10,50,8.70
2018,11,13,10,51,8.70
2018,11,13,10,52,8.70
2018,11,13,10,53,8.60
2018,11,13,10,54,8.60
2018,11,13,10,55,8.60
2018,11,13,10,56,8.60
2018,11,13,10,57,8.60
2018,11,13,10,58,8.60
2018,11,13,10,59,8.50
2018,11,13,11,00,8.50
2018,11,13,11,01,8.50
2018,11,13,11,02,8.50
2018,11,13,11,03,8.50
2018,11,13,11,04,8.50
2018,11,13,11,05,8.50
2018,11,13,11,06,8.50
2018,11,13,11,07,8.50
2018,11,13,11,08,8.50
2018,11,13,11,09,8.50
2018,11,13,11,10,8.50
2018,11,13,11,11,8.50
2018,11,13,11,12,8.50
2018,11,13,11,13,8.50
2018,11,13,11,14,8.50
2018,11,13,11,15,8.50
2018,11,13,11,16,8.50
2018,11,13,11,17,8.50
2018,11,13,11,18,8.50
2018,11,13,11,19,8.50
2018,11,13,11,20,8.50
2018,11,13,11,21,8.50
2018,11,13,17,35,8.80
2018,11,13,17,36,8.80
2018,11,13,17,37,8.80
2018,11,13,17,38,8.80
2018,11,13,17,39,8.80
2018,11,13,17,40,8.70
2018,11,13,17,41,8.70
2018,11,13,17,42,8.70
2018,11,13,17,43,8.70
2018,11,13,17,44,8.70
2018,11,13,17,45,8.70
2018,11,13,17,46,8.80
2018,11,13,17,47,8.70
2018,11,13,17,48,8.80
2018,11,13,17,49,8.70
2018,11,13,17,50,8.80
2018,11,13,17,51,8.80
2018,11,13,17,52,8.80
2018,11,13,17,53,8.70
2018,11,13,17,54,8.70
2018,11,13,17,55,8.70
2018,11,13,17,56,8.70
2018,11,13,17,57,8.70
2018,11,13,17,58,8.70
2018,11,13,17,59,8.70
2018,11,13,18,00,8.70
2018,11,13,18,01,8.70
2018,11,13,18,02,8.70
2018,11,13,18,03,8.70
2018,11,13,18,04,8.70
2018,11,13,18,05,8.70
2018,11,13,18,06,8.70
2018,11,13,18,07,8.70
2018,11,13,18,08,8.70
2018,11,13,18,09,8.70
2018,11,13,18,10,8.70
2018,11,13,18,11,8.60
2018,11,13,18,12,8.70
2018,11,13,18,13,8.60
2018,11,13,18,14,8.60
2018,11,13,18,15,8.60
2018,11,13,18,16,8.60
2018,11,13,18,17,8.60
2018,11,13,18,18,8.60
2018,11,13,18,19,8.60
2018,11,13,18,20,8.60
2018,11,13,18,21,8.60
2018,11,13,18,22,8.50
2018,11,13,18,23,8.50
2018,11,13,18,24,8.60
2018,11,13,18,25,8.60
2018,11,13,18,26,8.50
2018,11,13,18,27,8.50
2018,11,13,18,28,8.50
2018,11,13,18,29,8.50
2018,11,13,18,30,8.50
2018,11,13,18,31,8.50
2018,11,13,18,32,8.50
2018,11,13,18,33,8.50
2018,11,13,18,34,8.50
2018,11,13,18,35,8.40
2018,11,13,18,36,8.40
2018,11,13,18,37,8.40
2018,11,13,18,38,8.40
2018,11,13,18,39,8.40
2018,11,13,18,40,8.40
2018,11,13,18,41,8.40
2018,11,13,18,42,8.40
2018,11,13,18,43,8.40
2018,11,13,18,44,8.40
2018,11,13,18,45,8.40
2018,11,13,18,46,8.30
2018,11,13,18,47,8.30
2018,11,13,18,48,8.30
2018,11,13,18,49,8.30
2018,11,13,18,50,8.30
2018,11,13,18,51,8.30
2018,11,13,18,52,8.30
2018,11,13,18,53,8.30
2018,11,13,18,54,8.30
2018,11,13,18,55,8.30
2018,11,13,18,56,8.30
2018,11,13,18,57,8.30
2018,11,13,18,58,8.30
2018,11,13,18,59,8.30
2018,11,13,19,00,8.30
2018,11,13,19,01,8.30
2018,11,13,19,02,8.30
2018,11,13,19,03,8.30
2018,11,13,19,04,8.30
2018,11,13,19,05,8.30
2018,11,13,19,06,8.20
2018,11,13,19,07,8.20
2018,11,13,19,08,8.20
2018,11,13,19,09,8.20
2018,11,13,19,10,8.20
2018,11,13,19,11,8.20
2018,11,13,19,12,8.20
2018,11,13,19,13,8.20
2018,11,13,19,14,8.20
2018,11,13,19,15,8.20
2018,11,13,19,16,8.20
2018,11,13,19,17,8.20
2018,11,13,19,18,8.20
2018,11,13,19,19,8.20
2018,11,13,19,20,8.20
2018,11,13,19,21,8.20
2018,11,13,19,22,8.20
2018,11,13,19,23,8.20
2018,11,13,19,24,8.20
2018,11,13,19,25,8.20
2018,11,13,19,26,8.10
2018,11,13,19,27,8.10
2018,11,13,19,28,8.10
2018,11,13,19,29,8.10
2018,11,13,19,30,8.10
2018,11,13,19,31,8.10
2018,11,13,19,32,8.10
2018,11,13,19,33,8.10
2018,11,13,19,34,8.10
2018,11,13,19,35,8.10
2018,11,13,19,36,8.10
2018,11,13,19,37,8.10
2018,11,13,19,38,8.10
2018,11,13,19,39,8.10
2018,11,13,19,40,8.10
2018,11,13,19,41,8.10
2018,11,13,19,42,8.10
2018,11,13,19,43,8.10
2018,11,13,19,44,8.10
2018,11,13,19,45,8.10
2018,11,13,19,46,8.10
2018,11,13,19,47,8.10
2018,11,13,19,48,8.10
2018,11,13,19,49,8.10
2018,11,13,19,50,8.10
2018,11,13,19,51,8.10
2018,11,13,19,52,8.10
2018,11,13,19,53,8.10
2018,11,13,19,54,8.20
2018,11,13,19,55,8.20
2018,11,13,19,56,8.20
2018,11,13,19,57,8.20
2018,11,13,19,58,8.20
2018,11,13,19,59,8.20
2018,11,13,20,00,8.20
2018,11,13,20,01,8.20
2018,11,13,20,02,8.20
2018,11,13,20,03,8.20
2018,11,13,20,04,8.20
2018,11,13,20,05,8.20
2018,11,13,20,06,8.20
2018,11,13,20,07,8.20
2018,11,13,20,08,8.20
2018,11,13,20,09,8.20
2018,11,13,20,10,8.20
2018,11,13,20,11,8.20
2018,11,13,20,12,8.20
2018,11,13,20,13,8.20
2018,11,13,20,14,8.20
2018,11,13,20,15,8.20
2018,11,13,20,16,8.20
2018,11,13,20,17,8.20
2018,11,13,20,18,8.20
2018,11,13,20,19,8.20
2018,11,13,20,20,8.20
2018,11,13,20,21,8.20
2018,11,13,20,22,8.20
2018,11,13,20,23,8.20
2018,11,13,20,24,8.20
2018,11,13,20,25,8.20
2018,11,13,20,26,8.20
2018,11,13,20,27,8.20
2018,11,13,20,28,8.20
2018,11,13,20,29,8.20
2018,11,13,20,30,8.20
2018,11,13,20,31,8.20
2018,11,13,20,32,8.20
2018,11,13,20,33,8.20
2018,11,13,20,34,8.20
2018,11,13,20,35,8.30
2018,11,13,20,36,8.30
2018,11,13,20,37,8.30
2018,11,13,20,38,8.30
2018,11,13,20,39,8.30
2018,11,13,20,40,8.30
2018,11,13,20,41,8.40
2018,11,13,20,42,8.40
2018,11,13,20,43,8.40
2018,11,13,20,44,8.40
2018,11,13,20,45,8.50
2018,11,13,20,46,8.50
2018,11,13,20,47,8.60
2018,11,13,20,48,8.70
2018,11,13,20,49,8.80
2018,11,13,20,50,8.80
2018,11,13,20,51,8.80
2018,11,13,20,52,8.90
2018,11,13,20,53,8.90
2018,11,13,20,54,8.90
2018,11,13,20,55,8.90
2018,11,13,20,56,9.00
2018,11,13,20,57,9.10
2018,11,13,20,58,9.10
2018,11,13,20,59,9.20
2018,11,13,21,00,9.20
2018,11,13,21,01,9.20
2018,11,13,21,02,9.20
2018,11,13,21,03,9.20
2018,11,13,21,04,9.20
2018,11,13,21,05,9.20
2018,11,13,21,06,9.20
2018,11,13,21,07,9.20
2018,11,13,21,08,9.20
2018,11,13,21,09,9.20
2018,11,13,21,10,9.20
2018,11,13,21,11,9.20
2018,11,13,21,12,9.20
2018,11,13,21,13,9.20
2018,11,13,21,14,9.20
2018,11,13,21,15,9.20
2018,11,13,21,16,9.20
2018,11,13,21,17,9.20
2018,11,13,21,18,9.20
2018,11,13,21,19,9.20
2018,11,13,21,20,9.20
2018,11,13,21,21,9.20
2018,11,13,21,22,9.20
2018,11,13,21,23,9.20
2018,11,13,21,24,9.20
2018,11,13,21,25,9.20
2018,11,13,21,26,9.20
2018,11,13,21,27,9.30
2018,11,13,21,28,9.30
2018,11,13,21,29,9.30
2018,11,13,21,30,9.40
2018,11,13,21,31,9.40
2018,11,13,21,32,9.40
2018,11,13,21,33,9.40
2018,11,13,21,34,9.40
2018,11,13,21,35,9.40
2018,11,13,21,36,9.40
2018,11,13,21,37,9.50
2018,11,13,21,38,9.50
2018,11,13,21,39,9.50
2018,11,13,21,40,9.60
2018,11,13,21,41,9.60
2018,11,13,21,42,9.60
2018,11,13,21,43,9.60
2018,11,13,21,44,9.60
2018,11,13,21,45,9.60
2018,11,13,21,46,9.60
2018,11,13,21,47,9.60
2018,11,13,21,48,9.60
2018,11,13,21,49,9.60
2018,11,13,21,50,9.60
2018,11,13,21,51,9.60
2018,11,13,21,52,9.60
2018,11,13,21,53,9.60
2018,11,13,21,54,9.70
2018,11,13,21,55,9.60
2018,11,13,21,56,9.60
2018,11,13,21,57,9.70
2018,11,13,21,58,9.60
2018,11,13,21,59,9.60
2018,11,13,22,00,9.60
2018,11,13,22,01,9.60
2018,11,13,22,02,9.60
2018,11,13,22,03,9.60
2018,11,13,22,04,9.60
2018,11,13,22,05,9.60
2018,11,13,22,06,9.60
2018,11,13,22,07,9.60
2018,11,13,22,08,9.60
2018,11,13,22,09,9.60
2018,11,13,22,10,9.50
2018,11,13,22,11,9.50
2018,11,13,22,12,9.50
2018,11,13,22,13,9.50
2018,11,13,22,14,9.40
2018,11,13,22,15,9.40
2018,11,13,22,16,9.40
2018,11,13,22,17,9.40
2018,11,13,22,18,9.30
2018,11,13,22,19,9.30
2018,11,13,22,20,9.30
2018,11,13,22,21,9.30
2018,11,13,22,22,9.30
2018,11,13,22,23,9.30
2018,11,13,22,24,9.30
2018,11,13,22,25,9.30
2018,11,13,22,26,9.20
2018,11,13,22,27,9.20
2018,11,13,22,28,9.20
2018,11,13,22,29,9.20
2018,11,13,22,30,9.20
2018,11,13,22,31,9.20
2018,11,13,22,32,9.20
2018,11,13,22,33,9.20
2018,11,13,22,34,9.20
2018,11,13,22,35,9.10
2018,11,13,22,36,9.10
2018,11,13,22,37,9.10
2018,11,13,22,38,9.10
2018,11,13,22,39,9.10
2018,11,13,22,40,9.10
2018,11,13,22,41,9.10
2018,11,13,22,42,9.00
2018,11,13,22,43,9.00
2018,11,13,22,44,9.00
2018,11,13,22,45,9.00
2018,11,13,22,46,9.00
2018,11,13,22,47,9.00
2018,11,13,22,48,9.00
2018,11,13,22,49,8.90
2018,11,13,22,50,8.90
2018,11,13,22,51,8.90
2018,11,13,22,52,8.90
2018,11,13,22,53,8.90
2018,11,13,22,54,8.90
2018,11,13,22,55,8.90
2018,11,13,22,56,8.90
2018,11,13,22,57,8.90
2018,11,13,22,58,8.90
2018,11,13,22,59,8.90
2018,11,13,23,00,8.90
2018,11,13,23,01,8.90
2018,11,13,23,02,8.90
2018,11,13,23,03,8.90
2018,11,13,23,04,8.80
2018,11,13,23,05,8.80
2018,11,13,23,06,8.80
2018,11,13,23,07,8.80
2018,11,13,23,08,8.80
2018,11,13,23,09,8.80
2018,11,13,23,10,8.80
2018,11,13,23,11,8.80
2018,11,13,23,12,8.80
2018,11,13,23,13,8.80
2018,11,13,23,14,8.90
2018,11,13,23,15,8.90
2018,11,13,23,16,8.90
2018,11,13,23,17,8.90
2018,11,13,23,18,8.90
2018,11,13,23,19,8.90
2018,11,13,23,20,8.90
2018,11,13,23,21,8.90
2018,11,13,23,22,8.90
2018,11,13,23,23,8.90
2018,11,13,23,24,8.90
2018,11,13,23,25,8.90
2018,11,13,23,26,8.90
2018,11,13,23,27,8.90
2018,11,13,23,28,8.90
2018,11,13,23,29,8.90
2018,11,13,23,30,8.90
2018,11,13,23,31,8.90
2018,11,13,23,32,8.90
2018,11,13,23,33,8.90
2018,11,13,23,34,8.90
2018,11,13,23,35,8.90
2018,11,13,23,36,8.80
2018,11,13,23,37,8.80
2018,11,13,23,38,8.80
2018,11,13,23,39,8.80
2018,11,13,23,40,8.80
2018,11,13,23,41,8.80
2018,11,13,23,42,8.80
2018,11,13,23,43,8.80
2018,11,13,23,44,8.80
2018,11,13,23,45,8.80
2018,11,13,23,46,8.80
2018,11,13,23,47,8.80
2018,11,13,23,48,8.80
2018,11,13,23,49,8.80
2018,11,13,23,50,8.70
2018,11,13,23,51,8.70
2018,11,13,23,52,8.70
2018,11,13,23,53,8.70
2018,11,13,23,54,8.70
2018,11,13,23,55,8.70
2018,11,13,23,56,8.70
2018,11,13,23,57,8.70
2018,11,13,23,58,8.70
2018,11,13,23,59,8.70
